{"data":{"norad_id":56772,"epoch":"2026-09-20T22:00:03.000096Z","epoch_age_seconds":78889,"freshness":"FRESH","line1":"1 56772U 23078F   26263.91670139  .00055602  00000+0  38276-2 0  9997","line2":"2 56772  70.0005 232.1321 0004003 303.0429  14.9725 15.05568723  5660","mean_motion":15.05568723,"eccentricity":0.0004003,"inclination_deg":70.0005,"raan_deg":232.1321,"arg_perigee_deg":303.0429,"mean_anomaly_deg":14.9725,"bstar":0.0038276,"rev_number":566,"period_min":95.644919956271,"perigee_km":546.98723703526,"apogee_km":552.53371175326,"semimajor_km":6927.8974743943,"source":"CELESTRAK","updated_at":"2026-09-21T09:00:33.485923Z"}}